[[{"header":{"parameterUnit":"m.s-1","parameterCategory":1,"la1":30.2992,"la2":30.254,"lo1":-89.0895,"lo2":-89.0443,"dy":0.0025,"dx":0.0025,"nx":19,"ny":19,"refTime":"2026-05-08T09:00:00:Z","depth":0,"parameterNumber":2,"parameterNumberName":"U-component_of_WINDS"},"data":[0,0,0,-3.2251,-3.2252,-3.2275,-3.2275,-3.2333,-3.2334,0,0,0,0,0,0,0,0,0,0,0,-3.2262,-3.2263,-3.2251,-3.2252,-3.2275,-3.2275,-3.2333,-3.2334,0,0,0,0,0,0,0,0,0,0,0,-3.2261,-3.2263,-3.2264,-3.2252,-3.2275,-3.2275,-3.2333,-3.2306,0,0,0,0,0,0,0,0,0,0,-3.2279,-3.2305,-3.2262,-3.2264,-3.2253,-3.2275,-3.2275,-3.2304,-3.2307,-3.2336,0,-3.2365,0,-3.2351,-3.234,-3.234,0,0,0,-3.224,-3.2302,-3.2293,-3.2264,-3.2253,-3.2275,-3.2261,-3.2305,-3.231,-3.2341,-3.2365,-3.2367,-3.2352,-3.234,-3.2341,-3.2546,-3.2547,0,0,-3.2238,-3.2275,-3.229,-3.2296,-3.2294,-3.226,-3.2262,-3.2307,-3.2337,-3.2365,-3.2367,-3.2352,-3.2341,-3.2342,-3.2544,-3.2546,0,0,0,-3.2243,-3.2275,-3.2264,-3.2295,-3.2296,-3.2261,-3.2263,-3.2335,-3.2328,-3.2368,-3.2353,-3.2342,-3.2343,-3.2542,-3.2545,-3.2658,0,0,0,-3.2242,-3.2278,-3.2264,-3.2287,-3.2296,-3.2316,-3.229,-3.2325,-3.2329,-3.2353,-3.2342,-3.2343,-3.2541,-3.2544,-3.2652,-3.2707,0,0,0,-3.2255,-3.2279,-3.2288,-3.2289,-3.2299,-3.2314,-3.2309,-3.2325,-3.2321,-3.234,-3.2344,-3.2539,-3.2543,-3.2645,-3.2696,-3.2773,0,0,0,-3.2279,-3.2388,-3.2291,-3.2407,-3.23,-3.2384,-3.2309,-3.2369,-3.24,-3.2342,-3.2541,-3.2545,-3.2643,-3.269,-3.2766,-3.2845,-3.288,0,0,-3.2437,-3.2408,-3.2474,-3.2387,-3.2498,-3.2377,-3.2505,-3.2497,-3.2465,-3.2521,-3.2526,-3.2654,-3.2696,-3.2771,-3.3064,-3.3093,0,0,0,-3.2537,-3.2585,-3.2606,-3.2636,-3.2633,-3.2636,-3.2605,-3.2602,-3.2648,-3.2501,-3.27,-3.2724,-3.2767,-3.2802,-3.2827,-3.2862,-3.2562,-3.2562,-3.2562,-3.2815,-3.2769,-3.2875,-3.2831,-3.2862,-3.2829,-3.285,-3.2841,-3.2785,-3.2833,-3.285,-3.3033,-3.3076,-3.3094,-3.3132,-3.2886,-3.2886,-3.2886,-3.2887,-3.3045,-3.3106,-3.3029,-3.3104,-3.3055,-3.3118,-3.3091,-3.305,-3.3102,-3.3016,-3.3052,-3.2964,-3.3127,-3.3158,-3.2895,-3.2893,-3.2892,-3.2892,-3.2891,-3.3224,-3.3245,-3.324,-3.328,-3.3316,-3.3268,-3.3322,-3.3275,-3.323,-3.3265,-3.3279,-3.3277,-3.3271,-3.3275,-3.3275,-3.3276,-3.3277,-3.3277,-3.3278,-3.3412,-3.3402,-3.3453,-3.346,-3.3474,-3.3487,-3.3456,-3.3468,-3.3471,-3.3432,-3.3432,-3.3373,-3.3151,-3.3098,-3.3287,-3.3286,-3.3284,-3.3283,-3.3283,-3.3665,-3.36,-3.368,-3.3694,-3.3699,-3.374,-3.3677,-3.3708,-3.3711,-3.374,-3.3673,-3.3516,-3.3484,-3.3464,-3.342,-3.3681,-3.3681,-3.3681,-3.3681,-3.3818,-3.3796,-3.3867,-3.3894,-3.3914,-3.3866,-3.396,-3.3937,-3.3904,-3.3903,-3.3858,-3.3794,-3.3776,-3.3754,-3.3728,-3.3686,-3.401,-3.401,-3.4011,-3.3972,-3.395,-3.4038,-3.4004,-3.4005,-3.4007,-3.4093,-3.4128,-3.4076,-3.4023,-3.3903,-3.3889,-3.3785,-3.3754,-3.37,-3.3661,-3.3582,0,0]},{"header":{"parameterUnit":"m.s-1","parameterCategory":1,"la1":30.2992,"la2":30.254,"lo1":-89.0895,"lo2":-89.0443,"dy":0.0025,"dx":0.0025,"nx":19,"ny":19,"refTime":"2026-05-08T09:00:00:Z","depth":0,"parameterNumber":3,"parameterNumberName":"V-component_of_WINDS"},"data":[0,0,0,-1.5183,-1.5181,-1.5108,-1.5107,-1.503,-1.503,0,0,0,0,0,0,0,0,0,0,0,-1.5217,-1.5217,-1.5183,-1.5181,-1.5108,-1.5107,-1.503,-1.503,0,0,0,0,0,0,0,0,0,0,0,-1.5217,-1.5217,-1.5217,-1.5181,-1.5108,-1.5107,-1.503,-1.5079,0,0,0,0,0,0,0,0,0,0,-1.5148,-1.5192,-1.5217,-1.5217,-1.5181,-1.5108,-1.5107,-1.5081,-1.5076,-1.5072,0,-1.5072,0,-1.505,-1.5026,-1.5025,0,0,0,-1.5172,-1.5196,-1.5165,-1.5217,-1.518,-1.5108,-1.5138,-1.5078,-1.5073,-1.5065,-1.5071,-1.5067,-1.5049,-1.5025,-1.5025,-1.5034,-1.5035,0,0,-1.5176,-1.5209,-1.517,-1.5162,-1.5177,-1.5141,-1.5136,-1.5075,-1.5082,-1.507,-1.5065,-1.5047,-1.5025,-1.5024,-1.5034,-1.5034,0,0,0,-1.5194,-1.5213,-1.5183,-1.5166,-1.5152,-1.5139,-1.5133,-1.5085,-1.5073,-1.5064,-1.5046,-1.5025,-1.5024,-1.5033,-1.5034,-1.5092,0,0,0,-1.5196,-1.5223,-1.5185,-1.5205,-1.5153,-1.5118,-1.5146,-1.5077,-1.5069,-1.5047,-1.5025,-1.5023,-1.5032,-1.5033,-1.5089,-1.5113,0,0,0,-1.5217,-1.5226,-1.5219,-1.5207,-1.5177,-1.5118,-1.5102,-1.5075,-1.5059,-1.5025,-1.5023,-1.5032,-1.5033,-1.5087,-1.5109,-1.5126,0,0,0,-1.5249,-1.5271,-1.5221,-1.5238,-1.5178,-1.5155,-1.5102,-1.5082,-1.5061,-1.5024,-1.5032,-1.5034,-1.5086,-1.5107,-1.5124,-1.5147,-1.516,0,0,-1.5295,-1.5278,-1.5285,-1.5238,-1.5233,-1.5164,-1.5166,-1.5114,-1.5078,-1.505,-1.505,-1.509,-1.5109,-1.5126,-1.522,-1.5231,0,0,0,-1.5311,-1.5317,-1.5308,-1.529,-1.5252,-1.522,-1.5164,-1.5145,-1.512,-1.5072,-1.51,-1.511,-1.5118,-1.5128,-1.5136,-1.5142,-1.504,-1.5039,-1.5039,-1.5423,-1.5379,-1.5388,-1.5336,-1.5319,-1.5261,-1.5243,-1.5207,-1.5165,-1.5173,-1.5164,-1.5227,-1.524,-1.5246,-1.5252,-1.5173,-1.5173,-1.5173,-1.5173,-1.5487,-1.5488,-1.5434,-1.5424,-1.5377,-1.5367,-1.5313,-1.5284,-1.5267,-1.523,-1.5235,-1.5198,-1.5259,-1.5262,-1.5177,-1.5177,-1.5176,-1.5176,-1.5175,-1.5555,-1.5548,-1.5526,-1.5496,-1.5478,-1.5423,-1.541,-1.5367,-1.5326,-1.5331,-1.5317,-1.5316,-1.5309,-1.5327,-1.5328,-1.5328,-1.5328,-1.5328,-1.5328,-1.5636,-1.5608,-1.5604,-1.5566,-1.555,-1.5522,-1.5465,-1.5447,-1.5415,-1.5384,-1.5384,-1.5342,-1.5274,-1.5257,-1.5332,-1.5331,-1.5331,-1.533,-1.533,-1.5716,-1.5692,-1.5685,-1.5669,-1.5621,-1.5606,-1.5551,-1.5518,-1.5496,-1.5492,-1.5449,-1.5405,-1.5383,-1.5376,-1.5362,-1.5459,-1.5459,-1.5459,-1.5459,-1.5774,-1.576,-1.5744,-1.572,-1.5692,-1.5643,-1.5636,-1.5592,-1.5542,-1.5526,-1.5505,-1.5483,-1.5478,-1.5459,-1.545,-1.5436,-1.5549,-1.555,-1.555,-1.5821,-1.5802,-1.5805,-1.5758,-1.5718,-1.5684,-1.5676,-1.565,-1.5588,-1.5552,-1.5512,-1.5508,-1.5472,-1.5463,-1.5426,-1.5413,-1.5387,0,0]}]]